Regional Weather Roundup
Issued by NWS

Home | Current Version | Previous Version | Text Only | Print | Product List | Glossary Off
Versions: 1 2 3 4 5 6 7 8 9 10 11 12 13 14 15 16 17 18 19 20 21 22 23 24 25 26 27 28 29 30 31 32 33 34 35 36 37 38 39 40 41 42 43 44 45 46 47 48 49 50

000
ASUS43 KBIS 060102
RWRND

NORTH DAKOTA REGIONAL WEATHER ROUNDUP
NATIONAL WEATHER SERVICE BISMARCK ND
800 PM CDT SUN JUL 05 2015

NOTE: "FAIR" INDICATES FEW OR NO CLOUDS BELOW 12,000 FEET WITH NO
SIGNIFICANT WEATHER AND/OR OBSTRUCTIONS TO VISIBILITY.


NDZ001>003-009>011-017-060200-
NORTHWEST NORTH DAKOTA

CITY           SKY/WX    TMP DP  RH WIND       PRES   REMARKS
WILLISTON      CLOUDY    73  47  39 N12       30.03R
MINOT          CLOUDY    71  56  58 NW15      29.95R HAZE
$$

NDZ018>021-031>035-040>046-060200-
SOUTHWEST NORTH DAKOTA

CITY           SKY/WX    TMP DP  RH WIND       PRES   REMARKS
BISMARCK       CLOUDY    72  60  66 W6        29.95R HAZE
DICKINSON      CLOUDY    66  58  75 NW5       30.02R HAZE
GARRISON         N/A     69  60  73 NW8       29.96R
HETTINGER ARPT CLOUDY    65  57  75 N7        30.05R HAZE
$$

NDZ004>008-012>016-024-026-027-054-060200-
NORTHEAST NORTH DAKOTA

CITY           SKY/WX    TMP DP  RH WIND       PRES   REMARKS
GRAND FORKS    PTSUNNY   72  66  81 N6        29.83R
GRND FRKS AFB  PTSUNNY   71  66  82 N7        29.85R
DEVILS LAKE    CLOUDY    70  57  64 N12       29.88R
$$

NDZ022-023-025-028>030-036>039-047>053-060200-
SOUTHEAST NORTH DAKOTA

CITY           SKY/WX    TMP DP  RH WIND       PRES   REMARKS
FARGO          PTSUNNY   75  65  70 N13       29.81R
JAMESTOWN      PTSUNNY   71  66  84 N6        29.87R
$$



USA.gov is the U.S. government's official web portal to all federal, state and local government web resources and services.